Location: Heilwood
(40.6210°N, 78.9150°W)
Time: 12:43:59
(UTC-04:00)

Daily predictions for brighter satellites

Satellite Brightness Start Highest point End
(mag) Time Altitude Azimuth Time Altitude Azimuth Time Altitude Azimuth
Cosmos 1812 2.7 20:56:19 10° S 21:00:08 69° E 21:03:58 10° NNE
YAOGAN 6 2.7 20:57:43 10° S 21:01:26 85° WSW 21:05:10 10° NNW
Cosmos 1802 Rocket 4.1 20:57:19 10° S 21:03:36 77° E 21:10:00 10° N
Cosmos 1833 Rocket 3.1 20:58:33 10° SSW 21:04:10 72° WNW 21:09:49 10° NNE
H-2A R/B 3.5 21:04:22 10° ESE 21:07:55 20° ENE 21:11:30 10° NNE
Cosmos 2369 4.3 21:02:42 10° NNW 21:08:15 59° WSW 21:13:48 10° S
DNEPR-1 R/B 4.2 21:05:49 10° S 21:09:34 33° ESE 21:13:40 10° NE
Abrixas rocket 4.0 21:12:32 10° SSE 21:14:05 13° SE 21:15:37 10° ESE
Cosmos 44 4.2 21:12:11 10° NW 21:17:23 55° WSW 21:22:40 10° SSE
ATLAS CENTAUR R/B 1.9 21:14:19 10° NNW 21:18:46 56° NE 21:23:09 12° SE
ERS-2 2.5 21:15:20 10° S 21:18:59 64° WSW 21:22:40 10° NNW
NOSS 3-2 (A) 3.7 21:14:35 10° S 21:20:02 43° ESE 21:25:59 10° NE
SL-24 R/B 4.4 21:15:29 10° SSE 21:20:17 73° E 21:25:23 10° N
USA 234 3.4 21:15:30 10° NE 21:22:06 87° NW 21:28:40 10° SW
NOSS 3-2 (C) 4.0 21:18:24 10° S 21:23:29 32° ESE 21:28:59 10° NE
Cosmos 1536 4.2 21:20:33 10° NNW 21:24:23 41° W 21:28:12 10° SSW
Okean 1 Rocket 3.3 21:21:06 10° N 21:25:21 49° E 21:29:27 11° SSE
Cosmos 1975 Rocket 4.2 21:22:29 11° SE 21:25:49 24° E 21:29:19 10° NE
Cosmos 1242 Rocket 4.2 21:23:36 10° NNE 21:26:21 19° ENE 21:28:22 13° ESE
Cosmos 1674 Rocket 3.6 21:22:21 10° S 21:26:48 87° W 21:31:18 10° N
Cosmos 1378 Rocket 3.6 21:23:00 10° S 21:27:12 54° E 21:31:26 10° NNE
Cosmos 2233 Rocket 4.3 21:22:26 10° SSE 21:28:11 44° E 21:34:01 10° NNE
Atlas Centaur 2 2.8 21:28:32 10° SW 21:30:52 16° S 21:32:12 14° SSE
Resurs 01 Rocket 2.1 21:26:43 10° S 21:31:04 61° W 21:35:26 10° NNW
ERS-1 Rocket 4.1 21:27:59 12° ESE 21:31:40 27° ENE 21:35:52 10° N
Tiangong 2 2.2 21:29:57 10° SSW 21:32:36 25° SSE 21:34:27 15° ESE
Cosmos 2082 Rocket 3.4 21:28:55 10° SW 21:34:18 46° WNW 21:39:48 10° NNE
Cosmos 1975 3.3 21:31:25 10° N 21:35:17 42° ENE 21:38:13 16° SE
COSMOS 2487 2.5 21:33:27 10° SSW 21:36:57 82° WNW 21:40:28 10° NNE
NOAA 11 4.3 21:31:32 10° S 21:37:01 80° WSW 21:42:30 10° NNW
Cosmos 2322 Rocket 3.3 21:33:12 10° N 21:38:05 29° NE 21:42:00 14° ESE
CZ-4B DEB 4.4 21:38:29 14° SSE 21:41:26 75° ENE 21:44:55 10° N
SL-16 R/B 3.1 21:39:27 10° N 21:44:38 35° ENE 21:48:26 17° ESE
Timation 2 Rocket 4.1 21:44:13 10° S 21:49:53 48° ESE 21:55:40 10° NE
ARGOS 3.2 21:49:16 16° SSE 21:53:39 69° ENE 21:59:02 10° N
SPOT 5 4.0 21:54:03 18° ESE 21:56:06 25° ENE 21:59:46 10° NNE
CENTAUR R/B 3.4 21:55:22 19° SE 21:57:57 25° ESE 22:03:05 10° NE
GPS 2-04 Rocket1 3.7 21:54:06 10° WSW 21:57:59 34° SSW 21:59:43 24° SSE
SJ 16-02 3.7 22:02:13 10° NE 22:03:11 11° NE 22:04:09 10° ENE
Helios 1A 3.9 22:03:55 24° ESE 22:05:33 33° ENE 22:09:17 10° N
ATLAS 3B R/B 3.1 22:00:18 10° SW 22:07:28 68° NW 22:14:23 10° NNE
Cosmos 1464 Rocket 4.5 22:09:53 22° SSE 22:13:32 44° E 22:19:31 10° NNE
USA 32 4.2 22:12:26 10° N 22:17:35 54° E 22:20:04 29° SSE
Cosmos 2084 3.6 22:17:48 21° S 22:20:23 47° ESE 22:24:22 10° NE
Terra 3.2 22:20:01 21° E 22:21:32 25° ENE 22:25:23 10° NNE
Lacrosse 5 rocket 3.8 22:21:56 10° NNW 22:24:40 16° NNE 22:27:20 10° ENE
Cosmos 468 Rocket 4.1 22:20:07 10° SSW 22:25:24 78° WNW 22:30:41 10° NNE
USA 245 2.8 22:25:00 53° SSE 22:25:39 78° ENE 22:29:27 10° N
Cosmos 1937 Rocket 3.5 22:20:36 10° NNW 22:25:43 65° ENE 22:27:55 33° SE
Shenzhou-11 Module 2.6 22:23:05 10° W 22:26:01 53° N 22:26:59 34° NE
Aureole 2 Rocket 3.9 22:24:31 10° NNE 22:26:40 20° ENE 22:26:40 20° ENE
ISS -2.9 22:26:45 10° WSW 22:29:55 49° NNW 22:33:08 10° NE
Cosmos 2360 Rocket 3.2 22:25:35 10° N 22:30:41 34° ENE 22:33:03 24° E
MetOp-B 4.4 22:27:45 22° S 22:31:16 65° WSW 22:36:36 10° NNW
SL-08 RB Rocket 4.0 22:29:44 26° S 22:32:12 62° W 22:36:43 10° NNW
CARTOSAT-1 4.5 22:31:49 30° E 22:32:43 33° ENE 22:36:34 10° N
Cosmos 1980 Rocket 3.6 22:28:18 10° NW 22:33:13 31° WSW 22:37:31 13° SSW
Cosmos 2219 Rocket 4.4 22:34:24 10° NNE 22:36:49 13° NE 22:39:13 10° ENE
Meteor 2-9 Rocket 4.0 22:32:57 10° N 22:38:18 87° E 22:40:44 34° S
Cosmos 1763 Rocket 3.4 22:34:07 16° SSW 22:38:22 86° ESE 22:43:41 10° NNE
Cosmos 841 Rocket 3.5 22:37:55 32° S 22:40:13 62° ESE 22:45:25 10° NNE
Cosmos 1666 4.2 22:36:55 10° NNW 22:40:26 33° W 22:42:31 20° SW
Cosmos 1743 4.1 22:38:23 10° NNW 22:41:53 35° W 22:43:47 21° SW
Cosmos 540 Rocket 4.0 22:41:48 35° ESE 22:42:13 36° ESE 22:46:55 10° NE
Cosmos 2333 Rocket 4.4 22:39:53 10° NNE 22:42:27 13° NE 22:45:00 10° ENE
SPOT 1/Viking Rocket 3.5 22:40:44 38° SSE 22:42:46 77° ENE 22:47:56 10° N
COSMOS 2428 4.5 22:42:09 10° N 22:46:19 20° NE 22:48:47 16° E
H-2A R/B 2.7 22:44:12 23° SSW 22:46:58 46° W 22:51:47 10° NNW
CZ-2C R/B 3.9 22:43:13 10° NE 22:47:49 25° E 22:47:57 25° E
DMSP B5D2-2 4.1 22:43:35 10° NNE 22:48:53 83° WNW 22:52:04 25° SSW
Meteor 2-4 Rocket 3.7 22:45:41 23° SSW 22:49:12 77° W 22:54:45 10° N
Abrixas rocket 3.6 22:46:52 10° WSW 22:48:33 28° WSW 22:48:33 28° WSW
Helios 1B rocket 2.3 22:47:58 10° NNE 22:52:08 76° ESE 22:52:46 61° SSE
Cosmos 1340 Rocket 2.8 22:51:32 51° SSW 22:52:29 82° WNW 22:56:34 10° N
IGS 5A 3.6 22:53:24 53° E 22:53:49 56° ENE 22:57:55 10° N
Cosmos 1455 Rocket 3.1 22:50:40 10° NNW 22:55:00 72° W 22:56:06 48° SSW
Cosmos 1833 4.2 22:53:11 38° S 22:55:16 62° ESE 23:00:54 10° NNE
ATLAS CENTAUR R/B 3.8 22:54:23 10° WNW 22:57:24 17° WSW 22:59:24 14° SW
Cosmos 1025 Rocket 4.0 22:59:55 33° ENE 22:59:55 33° ENE 23:03:23 10° NNE
Cosmos 1356 3.6 23:02:48 71° NW 23:02:48 71° NW 23:06:06 10° N
Cosmos 1898 Rocket 4.5 22:58:24 10° NW 23:03:20 40° WSW 23:05:31 27° SSW
Spot 1 3.8 23:04:57 75° SE 23:05:15 83° ENE 23:09:22 10° NNW
Tiangong 2 3.5 23:05:58 10° WSW 23:06:45 16° WSW 23:06:45 16° WSW
ERS-1 Rocket 4.2 23:07:59 23° SW 23:10:17 34° W 23:14:52 10° NNW
BREEZE M DEB (TANK) 2.8 23:06:14 10° WNW 23:13:13 54° SW 23:13:13 54° SW
Cosmos 2322 4.0 23:08:07 10° NNW 23:13:44 54° ENE 23:15:05 44° ESE
Meteor 1-29 3.4 23:10:34 10° N 23:13:38 62° NNW 23:13:38 62° NNW
Meteor 1-15 Rocket 4.1 23:09:30 10° N 23:15:19 89° E 23:16:45 53° S
Cosmos 1125 Rocket 4.0 23:11:36 10° N 23:16:40 46° ENE 23:17:27 43° E
Cosmos 292 Rocket 4.1 23:16:52 35° SW 23:18:44 61° WNW 23:23:27 10° NNE
Cosmos 1515 4.4 23:21:35 45° W 23:21:54 46° W 23:25:37 10° N
Cosmos 2322 Rocket 3.1 23:17:00 10° NW 23:22:12 40° WSW 23:23:50 32° SW
Cosmos 1092 Rocket 4.2 23:17:05 10° N 23:23:21 57° E 23:24:43 48° ESE
Cosmos 1066 Rocket 4.2 23:24:23 54° ESE 23:24:38 55° E 23:29:54 10° NNE
Cosmos 2237 Rocket 4.4 23:21:50 10° NNE 23:25:09 15° NE 23:27:50 12° ENE
SL-16 R/B 3.3 23:23:37 10° NW 23:28:39 33° WSW 23:30:19 28° SW
Nadezhda 4 Rocket 3.9 23:23:47 10° N 23:30:07 87° W 23:31:47 52° S
Cosmos 836 Rocket 4.3 23:31:57 74° SSE 23:32:21 80° ESE 23:37:35 10° NNE
SPOT 5 4.1 23:33:18 26° WSW 23:34:05 28° W 23:37:54 10° NW
Cosmos 2237 4.1 23:34:15 10° NNW 23:40:01 86° ENE 23:40:45 69° SSE
Nimbus 7 Rocket 4.4 23:34:28 10° N 23:40:21 75° WNW 23:42:12 46° SW
CZ-2C R/B 3.0 23:41:02 68° SSW 23:41:39 77° WSW 23:47:11 10° NNW
SJ 16-02 1.5 23:37:56 10° NNW 23:42:00 72° NW 23:42:00 72° NW
Cosmos 2219 3.8 23:44:27 41° E 23:44:27 41° E 23:49:11 10° NE
CENTAUR R/B 3.1 23:42:22 11° SW 23:47:58 56° NW 23:54:46 10° NNE
Mayak 0.9 23:48:33 10° NE 23:50:06 17° ENE 23:50:06 17° ENE
Cosmos 2058 Rocket 4.4 23:48:35 10° NNE 23:52:00 31° ENE 23:52:00 31° ENE
